Dewpoint
34 26 25 24 23 24 23 20 21 23 21 21 25 25 21 21 20 24 24 25 23 19 17 17 18 18 18 18 19 20 20 21 20 19 22 23 24 26 24 26 27 27 25 37 42 41 42 43 43 42 41 41 41 41 45 45 43 42 41 42 42 44 48 50 50 51 54 56 57 58 60 60 60 61 61 61 62 62 61 61 61 61 62 62 63 65
34 27 26 26 24 21 18 21 20 21 23 25 24 21 18 21 16 22 21 23 27 23 20 20 19 18 18 19 19 20 20 20 21 20 19 20 21 22 21 20 21 22 31 36 36 41 41 40 42 40 39 40 37 37 37 39 43 43 42 41 41 43 43 46 48 47 49 53 54 56 57 59 59 60 60 60 61 61 62 61 61 61 61 62 62 63
25 24 25 27 23 18 23 19 23 24 24 24 22 20 17 16 19 22 25 25 30 25 22 20 18 18 18 18 17 17 17 18 20 22 21 22 22 22 23 23 23 24 26 27 29 35 34 39 41 40 39 39 39 39 38 39 39 38 38 39 40 40 40 40 43 45 44 45 49 52 52 56 57 59 59 60 60 61 61 61 61 61 61 61 62 62
20 22 21 22 17 13 15 21 22 24 25 21 21 19 17 19 17 14 21 25 27 26 22 20 18 21 21 21 20 20 20 19 23 25 25 25 22 22 23 23 25 25 26 28 28 28 30 32 32 34 35 36 36 36 35 37 37 38 36 36 38 39 39 40 40 41 44 45 44 45 48 50 50 54 57 58 59 60 60 60 61 61 61 62 61 62
20 25 22 21 18 10 8 12 19 19 18 22 21 19 18 19 19 17 17 24 23 26 23 21 21 20 21 21 21 19 19 22 24 25 26 26 29 28 31 30 28 24 24 25 24 29 30 30 31 32 34 35 35 36 36 37 37 40 36 36 35 35 36 38 39 39 40 40 41 43 43 43 44 47 48 50 57 58 59 59 60 61 61 62 61 62
19 20 28 22 16 15 19 15 17 21 17 18 22 21 20 20 16 21 22 20 16 16 19 20 14 17 20 22 23 23 22 20 19 18 18 19 21 22 22 23 26 30 30 31 29 29 30 31 32 32 33 34 34 35 37 38 39 37 37 37 37 36 35 35 37 39 41 39 38 40 41 40 40 40 44 45 46 55 57 58 59 60 61 61 61 61
20 24 24 23 19 20 19 16 18 20 18 16 13 20 22 23 18 20 20 18 14 13 20 22 16 13 13 15 23 24 23 23 22 21 20 20 21 22 24 26 29 29 28 28 29 29 30 31 32 32 32 33 33 35 37 38 37 37 37 37 37 37 37 39 39 38 40 39 39 38 40 41 40 40 42 44 45 46 53 57 58 59 60 60 60 61
24 21 23 20 19 18 19 17 18 17 19 16 22 20 23 22 20 19 20 18 16 19 19 20 17 14 13 16 15 25 24 23 22 18 18 20 21 22 23 26 27 28 28 28 28 30 30 31 32 32 33 32 34 36 36 36 37 36 36 36 37 37 38 37 37 36 36 38 39 38 38 39 39 39 39 41 43 44 45 47 53 57 58 59 60 59
22 19 23 19 18 17 17 17 19 17 17 17 24 24 20 20 19 19 16 16 16 15 14 16 17 13 12 14 19 24 20 20 23 21 17 17 20 22 24 26 25 26 27 28 29 29 30 31 32 32 32 33 35 37 35 36 36 37 37 36 36 35 36 37 38 38 37 37 37 38 39 38 39 39 40 39 39 39 41 45 46 51 56 57 58 59
25 25 26 24 17 14 15 10 12 13 16 23 26 26 25 25 23 18 16 14 14 12 10 14 16 12 11 11 16 21 19 20 20 21 20 18 19 23 23 25 25 26 27 27 28 28 30 31 32 33 33 33 35 36 36 36 36 36 36 35 34 33 34 36 36 38 38 38 37 36 36 38 39 39 39 40 39 39 39 38 42 47 50 54 55 55
22 31 29 27 23 20 12 8 19 19 20 27 26 21 18 18 18 17 18 15 14 13 12 13 14 12 10 12 15 18 18 19 19 19 20 21 23 23 23 23 25 25 27 27 26 27 28 28 29 31 31 32 33 34 35 36 36 35 36 34 33 33 34 34 35 36 38 39 39 37 36 36 37 39 39 38 39 41 40 38 38 40 45 48 52 55
19 24 21 22 24 19 16 18 26 27 27 25 18 15 13 13 17 14 13 15 10 6 10 12 13 15 8 11 13 15 16 15 16 17 16 22 21 22 21 22 23 24 24 25 25 25 25 26 25 26 28 30 32 32 32 34 34 35 35 34 33 32 33 33 34 34 36 38 39 39 38 37 37 37 39 40 39 39 39 41 40 40 42 46 48 51
18 18 21 23 24 21 18 17 22 23 24 21 17 15 12 7 12 6 11 7 7 5 6 13 15 13 12 8 1 7 6 15 14 15 20 21 20 20 20 21 22 22 21 22 23 24 25 25 26 25 25 28 30 31 31 32 33 33 34 33 33 32 32 32 33 34 34 36 37 39 39 38 37 37 37 37 39 40 40 39 40 41 40 43 48 49
13 19 20 20 24 24 20 15 16 18 21 18 17 17 10 2 -2 -2 7 8 7 8 9 11 16 11 11 14 12 8 5 12 18 20 23 20 19 19 19 19 20 20 19 20 20 22 23 25 26 26 26 26 28 28 31 32 32 33 34 33 33 32 32 32 32 33 34 34 36 37 39 40 39 37 37 37 37 39 40 41 40 40 41 41 42 47
-3 -0 16 20 18 23 20 15 12 17 20 17 17 17 11 4 -6 -8 -5 -4 2 5 9 14 12 7 11 12 14 13 10 20 19 20 21 19 18 17 17 18 16 15 16 18 17 19 19 21 23 26 27 27 27 27 32 32 32 33 33 34 33 32 32 32 31 33 33 34 35 37 38 40 40 39 37 37 38 38 39 40 40 40 40 41 41 42
3 1 13 22 24 23 19 19 16 19 20 20 19 15 14 10 6 -3 -1 2 2 5 6 9 12 13 10 15 17 18 19 20 20 19 18 17 16 16 14 15 14 15 16 18 17 16 17 18 20 23 26 25 26 27 30 31 33 33 33 33 33 32 32 32 32 31 33 34 35 36 37 38 40 41 40 39 37 37 38 39 40 40 40 41 41 41
5 3 18 21 22 22 19 20 20 20 11 18 19 15 14 17 12 10 10 9 5 4 3 9 12 13 14 11 15 16 17 18 17 16 15 15 15 15 15 15 14 16 17 18 19 16 16 16 17 20 22 23 24 26 28 30 32 33 33 33 32 32 32 32 31 31 31 33 35 36 37 39 40 41 41 40 39 38 37 38 39 40 40 40 41 42
0 -0 13 16 13 19 23 23 23 21 16 16 16 17 21 20 15 10 4 0 1 -2 -5 -1 -2 -0 5 1 14 15 15 16 16 15 14 14 14 14 17 17 17 16 15 15 16 17 15 15 15 17 20 20 23 24 27 29 31 33 34 32 32 32 32 32 31 31 31 32 34 36 38 38 39 40 40 41 41 40 39 38 37 38 40 40 41 41
8 1 8 14 11 19 23 24 22 24 25 18 14 21 17 12 11 12 5 -1 -4 -4 -3 -1 -2 -3 -6 -8 11 12 13 14 14 14 13 12 13 15 14 14 14 15 18 17 16 16 17 18 16 14 15 16 20 25 27 29 31 33 32 33 33 32 32 32 33 32 31 32 34 37 38 38 39 40 41 41 41 41 40 39 39 38 39 39 40 41
7 3 5 12 12 16 18 19 12 16 21 24 24 20 17 15 11 10 9 3 -0 -3 -8 -6 2 2 5 -1 10 10 11 12 12 12 11 11 12 11 11 12 13 15 15 15 14 15 15 17 14 14 14 14 19 23 27 29 30 30 32 32 32 32 32 32 32 32 31 32 33 34 35 37 39 40 41 41 41 41 40 40 40 39 39 39 40 40
8 7 0 9 12 15 10 17 12 11 13 17 17 14 16 14 15 13 9 8 3 -3 -3 -5 -4 -4 10 7 8 10 9 10 10 10 11 9 9 10 11 13 14 14 15 13 14 12 13 15 14 14 15 18 20 23 26 28 28 30 32 32 32 32 32 32 32 32 32 32 32 33 33 34 37 39 41 41 42 41 41 40 40 39 39 39 40 41
6 8 3 9 7 11 9 14 15 10 12 15 16 14 17 15 12 7 3 5 6 5 1 -1 -2 0 10 8 6 7 7 9 10 10 9 9 8 11 13 12 14 14 10 10 10 10 14 14 15 15 15 19 19 23 23 26 28 29 30 32 32 33 33 32 32 32 32 32 32 32 32 32 34 37 39 40 41 41 41 41 41 40 40 39 39 40
13 8 7 4 6 10 9 16 18 16 15 15 16 14 17 16 12 9 2 2 5 7 5 5 2 4 12 10 7 7 7 7 8 9 9 9 10 11 12 13 12 13 10 9 9 9 13 14 15 14 12 13 16 21 25 26 27 29 30 31 32 32 32 32 32 32 32 32 32 32 32 32 33 33 34 37 39 40 41 41 41 41 40 40 40 40
20 7 5 6 8 8 8 15 11 9 7 9 8 11 15 14 13 10 7 3 0 1 4 3 2 3 12 12 8 8 9 8 8 9 13 11 9 10 12 12 11 11 10 11 9 11 11 13 13 10 12 15 17 22 24 26 28 30 31 32 32 32 32 32 32 32 31 31 31 31 32 32 32 32 32 32 35 38 40 41 42 42 41 41 40 40
8 10 6 2 0 2 5 8 8 8 6 7 8 11 12 12 12 11 9 9 5 4 3 3 -1 1 10 12 10 9 10 9 10 12 13 13 13 11 9 12 11 11 12 10 11 9 11 11 9 11 12 11 14 19 24 27 29 30 30 31 32 32 32 32 31 31 31 30 30 30 31 31 31 31 31 31 33 35 38 40 41 41 42 42 41 41
12 9 8 2 -2 -5 -4 -3 0 4 6 6 5 5 6 8 8 7 7 9 6 7 7 3 1 5 5 9 8 9 10 10 12 13 14 16 16 13 11 11 11 12 12 11 9 10 10 10 11 10 8 10 14 19 26 28 29 29 30 30 31 31 31 31 31 30 30 29 29 30 30 31 31 30 30 31 32 32 34 38 40 41 42 42 42 41
11 11 11 11 5 -1 -1 -0 3 8 6 5 5 5 5 5 6 7 6 7 6 9 7 7 6 5 4 5 8 8 8 9 10 11 12 12 14 15 12 14 12 13 12 8 8 12 11 10 8 7 9 10 15 24 27 28 28 28 28 29 30 30 30 30 30 29 28 28 28 29 30 30 30 30 30 31 31 31 32 35 38 40 41 41 42 42
16 11 10 10 11 12 14 12 12 13 12 10 6 5 5 4 5 6 4 2 6 4 2 6 6 5 4 3 2 3 4 4 4 3 4 5 8 10 8 8 18 10 10 11 10 8 8 9 9 8 8 10 21 27 27 27 27 27 28 28 29 29 29 30 28 27 27 27 27 28 29 29 29 30 30 30 30 30 31 32 33 35 38 40 41 41
14 11 12 12 9 11 12 13 11 9 10 11 11 11 11 10 7 4 4 5 5 2 0 2 1 1 1 1 3 2 0 -0 -0 0 1 -3 -2 1 6 9 9 9 8 8 7 7 7 6 9 8 9 16 25 26 26 26 26 26 27 27 28 27 27 28 27 26 26 26 26 26 27 27 28 29 29 28 29 29 30 31 31 32 35 38 40 41
14 9 10 11 10 10 11 11 11 10 10 8 8 9 9 10 10 11 11 11 8 5 5 4 3 1 0 -0 1 4 3 3 0 -1 1 1 -0 3 8 7 8 7 8 8 8 7 6 5 6 8 9 16 26 26 25 25 26 26 26 27 26 26 27 27 26 25 25 25 25 25 25 25 26 27 27 27 27 28 29 29 30 31 32 35 38 40
13 7 10 12 11 10 12 12 12 11 10 8 7 6 5 6 7 8 10 10 13 12 12 10 6 3 3 3 2 2 1 0 -0 0 0 1 1 3 3 5 6 6 7 7 7 6 5 4 4 5 9 18 25 26 25 25 26 26 25 25 25 26 26 26 25 24 23 23 24 23 23 23 24 24 25 25 26 27 28 29 29 30 31 33 36 39
16 9 12 10 7 5 10 10 9 8 8 7 6 7 6 4 3 3 5 7 7 8 9 9 9 8 7 7 6 5 4 4 3 3 2 3 2 2 3 3 4 6 7 6 7 6 4 3 5 5 10 20 25 25 25 25 25 24 24 25 25 25 26 25 23 22 21 22 22 22 22 22 22 22 23 24 25 26 27 28 29 29 30 31 33 35
14 11 8 7 4 2 7 7 5 5 5 3 4 5 4 4 3 3 2 3 4 5 5 6 7 8 8 10 7 5 5 4 4 4 5 5 4 3 3 4 4 8 8 8 7 9 4 3 4 8 14 24 25 25 25 25 24 24 24 24 24 25 26 24 22 21 20 20 20 20 21 21 21 21 21 22 23 25 26 27 28 29 30 30 31 33
14 12 9 9 1 2 5 5 5 2 -4 -4 7 3 4 2 2 1 1 0 -0 -0 0 3 5 7 7 7 6 5 5 4 4 5 6 5 5 5 5 6 7 7 8 9 8 8 7 6 7 11 22 26 25 26 26 25 24 24 23 23 23 24 25 23 22 20 19 19 19 19 19 19 19 19 20 21 22 23 24 25 26 28 29 30 30 31
9 9 8 9 4 1 3 4 1 -6 -6 -0 -4 -5 -6 -4 -2 -0 0 0 -0 -1 -2 -3 -2 -0 2 3 5 5 6 6 6 6 6 6 6 6 8 8 7 7 8 9 8 7 8 7 8 22 25 24 25 25 24 23 22 21 21 22 23 24 23 21 20 18 17 17 17 17 17 18 18 18 19 20 21 22 23 24 26 27 29 29 29 30
8 8 7 7 5 4 1 -0 -8 -10 5 7 -3 -4 -4 -5 -7 -6 -6 -4 -3 -3 -4 -5 -6 -5 -3 -1 1 3 4 5 6 8 7 8 8 7 6 6 7 7 8 8 8 9 8 6 12 25 25 26 25 23 21 21 20 20 20 22 22 22 20 19 18 16 16 16 15 15 16 16 16 17 17 19 20 20 22 23 24 26 28 29 29 30
10 9 7 3 5 -2 -2 -2 -4 -1 -2 -1 -4 -7 -7 -8 -7 -6 -4 -5 -5 -5 -4 -5 -5 -5 -5 -5 -3 -2 -1 1 2 3 6 7 9 9 8 6 6 7 9 10 10 10 10 8 22 26 26 24 20 20 20 19 19 19 20 21 21 18 17 17 15 15 14 14 14 14 14 14 15 16 17 18 18 19 20 22 24 26 28 29 29 29
12 8 7 3 1 2 -1 -4 -5 -5 -8 -5 -3 -4 -6 -8 -9 -9 -7 -8 -9 -11 -10 -11 -12 -8 -2 -1 -3 -4 0 -6 -8 -6 -0 5 7 12 9 10 9 11 12 11 11 10 18 24 25 25 22 19 18 18 18 17 18 18 19 20 18 16 14 13 13 13 13 12 12 12 12 13 14 15 17 17 17 18 20 22 24 26 28 28 28 29
10 12 9 4 1 1 -2 -4 -6 -9 -9 -8 -10 -6 -5 -6 -7 -7 -5 -6 -2 6 9 9 8 8 8 10 10 8 -0 -5 -7 -5 1 4 6 7 7 10 11 11 10 10 12 22 24 24 24 21 19 17 16 16 16 16 17 18 17 17 14 11 11 11 10 10 10 10 10 10 11 12 14 15 16 16 17 19 20 22 24 25 26 27 29 29
7 6 6 2 2 0 -2 -5 -7 -6 -8 -7 -12 -14 -15 -16 -14 -16 -15 -12 6 8 9 9 8 8 10 10 11 9 6 6 3 5 5 4 6 8 7 9 11 11 11 20 23 24 24 23 20 18 16 15 15 15 14 15 16 17 15 13 9 8 8 7 8 8 8 8 8 9 10 12 14 15 15 16 17 19 20 22 23 24 25 26 28 29
2 3 2 -0 -1 2 -1 -5 -4 -5 -2 -7 -11 -11 -13 -6 -10 -14 -16 1 5 8 8 7 7 9 9 9 10 10 10 11 12 12 11 7 6 9 13 8 12 12 19 23 24 26 23 22 19 17 15 14 14 13 13 14 14 13 13 9 6 6 6 5 5 5 5 6 6 8 10 12 13 14 15 16 18 19 21 21 22 23 25 26 28 29
0 0 -2 2 -0 -3 -3 -4 -6 -5 -0 8 2 -10 -10 -10 -14 -12 2 3 5 6 5 4 5 6 5 7 7 8 10 11 12 12 10 8 6 5 11 20 22 23 24 24 24 23 20 17 15 14 13 12 12 12 12 12 12 11 9 6 4 4 4 4 4 4 4 5 7 9 11 12 13 14 15 16 18 18 19 20 22 23 25 26 27 28
-1 -7 -6 -6 -4 -3 -4 -10 -7 -11 -2 5 7 3 7 -3 3 -0 0 4 4 4 2 2 3 3 3 3 4 6 8 10 11 12 11 9 6 10 19 21 22 22 22 22 22 21 18 16 14 12 11 10 10 10 10 11 10 9 6 3 3 3 2 2 2 3 4 6 7 9 10 11 12 13 14 16 17 18 18 20 22 23 24 25 26 27
1 -1 -7 -6 -2 -7 -8 -12 -10 3 2 3 5 -4 1 0 0 -0 0 2 3 2 -0 0 1 1 1 1 4 6 7 8 10 11 12 12 7 21 21 20 20 20 20 20 20 19 17 13 11 10 9 8 8 8 8 8 7 5 3 1 1 1 1 1 1 2 4 6 7 8 9 10 12 12 13 15 16 17 18 19 20 22 23 23 25 26
0 -5 -5 -8 -1 -4 -8 -5 -0 1 0 0 -1 -2 -3 -5 -3 -3 -2 -1 -1 -0 -1 -1 -1 -1 -1 1 3 5 5 5 6 8 11 11 13 19 18 18 19 19 18 19 19 18 14 11 9 8 7 6 7 7 6 5 3 3 0 -1 0 -1 -1 -0 1 3 4 5 6 7 8 10 11 11 13 14 15 16 17 18 19 20 21 22 23 24
-8 -5 -1 -5 -2 1 1 2 1 -1 -2 -3 -3 -4 -6 -6 -6 -5 -4 -3 -3 -3 -3 -3 -3 -2 -1 -0 2 3 3 4 5 11 12 16 17 18 18 18 18 18 18 18 17 15 12 10 8 7 5 5 5 5 6 3 1 0 -2 -1 -2 -2 -2 -1 0 1 2 3 4 6 8 9 9 10 11 12 14 15 16 17 18 18 19 20 21 22
-9 -9 -4 -5 -2 -4 -10 -7 -4 -6 -7 -7 -6 -6 -6 -7 -9 -7 -6 -6 -5 -6 -5 -5 -4 -3 -2 -0 0 -0 1 2 6 12 15 14 12 11 12 13 15 16 16 17 17 16 13 11 8 6 5 4 4 4 3 2 -0 -2 -3 -3 -4 -3 -3 -2 -1 -0 0 1 3 5 8 8 8 9 10 10 12 13 14 16 16 17 18 19 20 21
-5 -11 -3 -10 -4 -2 -7 -7 -6 -8 -10 -9 -9 -9 -9 -9 -9 -10 -9 -8 -8 -7 -6 -6 -6 -5 -4 -4 -4 -3 -1 0 4 9 9 8 8 9 10 11 12 14 14 14 13 13 12 10 7 4 3 2 2 2 2 0 -2 -4 -4 -5 -4 -4 -4 -3 -3 -2 -2 -1 3 5 6 7 9 9 9 9 11 11 12 13 14 15 16 17 18 19
-17 -13 -10 -15 -7 -8 -6 -10 -13 -3 -8 -11 -12 -10 -9 -10 -11 -11 -11 -10 -10 -10 -9 -8 -6 -7 -6 -6 -5 -4 -4 -3 0 6 6 5 5 6 8 9 10 10 11 10 10 11 8 8 5 2 1 -0 -1 -0 0 -1 -3 -4 -5 -6 -5 -5 -6 -5 -5 -4 -3 -0 2 3 5 6 6 7 8 9 10 11 11 12 13 14 15 17 19 21
-13 -18 -19 -13 -5 -5 -13 -15 -16 -12 -13 -13 -14 -13 -11 -11 -12 -13 -13 -13 -12 -12 -10 -9 -9 -8 -8 -6 -6 -6 -6 -5 -3 3 4 3 3 3 3 5 5 6 6 7 8 7 6 5 3 1 -1 -2 -3 -2 -2 -2 -4 -5 -6 -7 -6 -6 -7 -7 -6 -5 -4 -1 -0 1 3 4 5 6 7 8 9 9 10 13 14 15 16 17 20 22
-22 -22 -19 -21 -18 -16 -18 -17 -17 -16 -16 -13 -16 -13 -10 -13 -14 -15 -15 -14 -14 -12 -11 -9 -10 -10 -10 -9 -7 -8 -7 -7 -6 -1 1 1 2 1 2 2 2 2 1 2 3 3 3 0 -0 -2 -3 -4 -4 -4 -4 -3 -5 -6 -6 -7 -7 -7 -8 -8 -7 -6 -5 -3 -3 0 2 3 4 5 6 7 8 8 9 10 12 14 17 19 19 20